Regional Weather Roundup
Issued by NWS

Current Version | Previous Version | Text Only | Print | Product List | Glossary On
Versions: 1 2 3 4 5 6 7 8 9 10 11 12 13 14 15 16 17 18 19 20 21 22 23 24 25 26 27 28 29 30 31 32 33 34 35 36 37 38 39 40 41 42 43 44 45 46 47 48 49 50
000
ASUS45 KTFX 241404
RWRMT
MONTANA HOURLY WEATHER ROUNDUP
NATIONAL WEATHER SERVICE GREAT FALLS MT
804 AM MDT THU JUL 24 2014

NOTE: "FAIR" INDICATES FEW OR NO CLOUDS BELOW 12000 FEET WITH NO
SIGNIFICANT WEATHER AND/OR OBSTRUCTIONS TO VISIBILITY.

* THESE STATIONS ARE NOT UNDER NWS QUALITY CONTROL. THEY DO NOT
   REPORT WEATHER SUCH AS PRECIPITATION OR FOG.

MTZ001>007-043-241500-
WEST OF THE DIVIDE
CITY           SKY/WX    TMP DP  RH WIND       PRES   REMARKS
KALISPELL      CLOUDY    59  43  56 W8        30.02R
MISSOULA       PTSUNNY   61  45  56 NW7       30.05R
BUTTE          SUNNY     55  48  77 CALM      30.08R
MULLAN PASS    CLOUDY    37  36  96 VRB7      30.14R WCI  32
* ESSEX        N/A       59  41  51 NW1G6      N/A
* LINCOLN      N/A       55  48  77 S5G10      N/A
* LOOKOUT PASS N/A       45  37  74 SE7        N/A
* POLSON       N/A       56  43  62 W2         N/A
* RONAN APT    PTSUNNY   61  45  56 N/A        N/A
* SEELEY LAKE  N/A       56  43  62 SE3        N/A
* THOMP F APT  PTCLDY    60  37  43 NE2        N/A
$$

MTZ008-052>055-241500-
SOUTHWEST MONTANA
CITY           SKY/WX    TMP DP  RH WIND       PRES   REMARKS
BOZEMAN        SUNNY     63  50  63 S6        29.97R
DILLON         SUNNY     59  48  67 W6        30.01S
W YELLOWSTONE  PTCLDY    63  39  41 SW7       30.14S
* THREE FORKS  SUNNY     61  61 100 N/A        N/A
* BOULDER HILL N/A       59  45  60 SW4        N/A
* MONIDA PASS  N/A       59  35  41 SE12       N/A
* RAYNOLDS PAS N/A       60  43  54 S16G22     N/A
* WHITEHALL    N/A       54  51  90 SW2G7      N/A
* WISE RIVER   N/A       46  44  93 W4         N/A
$$

MTZ009>010-012-014-046-048-049-054-241500-
EAST SLOPES AND CENTRAL MONTANA
CITY           SKY/WX    TMP DP  RH WIND       PRES   REMARKS
CUT BANK       PTCLDY    61  48  62 NW3       29.95R
GREAT FALLS    PTCLDY    64  54  70 SW7       29.94R
HELENA         SUNNY     66  52  61 W10       29.97R
MALMSTROM AFB  PTCLDY    64  54  70 SW10      29.95S
* CONRAD       PTCLDY    63  59  87 N/A        N/A
* DEARBORN     N/A       60  54  81 N/A        N/A
* EAST GLACIER N/A       57  42  57 W14G21     N/A
* MONARCH      N/A       58  48  70 SW6        N/A
* PENDROY      N/A       59  53  81 NE3        N/A
* SAINT MARY   N/A       57  41  55 SW8G21     N/A
* SWEET GRASS  N/A       61  56  84 W4         N/A
$$

MTZ011-013-016-021-035-040-045-047-050-051-241500-
NORTH CENTRAL MONTANA
CITY           SKY/WX    TMP DP  RH WIND       PRES   REMARKS
HAVRE          PTCLDY    66  59  78 W7        29.84R
LEWISTOWN      PTCLDY    66  54  65 NW5       29.92R
* CHESTER      N/A       63  58  84 NW4        N/A
* DENTON       N/A       66  53  63 NW4G9      N/A
* GEYSER       N/A       63  53  70 N/A        N/A
* JUDITH GAP   N/A       64  52  65 VRB12G18    N/A
* LOMA         N/A       63  58  84 SW7        N/A
$$

MTZ017>020-022>027-061-062-241500-
NORTHEAST MONTANA
CITY           SKY/WX    TMP DP  RH WIND       PRES   REMARKS
GLASGOW        SUNNY     68  61  78 SE18      29.79R
GLENDIVE       SUNNY     70  57  64 E16       29.86S
JORDAN         PTCLDY    70  59  68 E12       29.81S
SIDNEY         PTCLDY    66  61  84 SE8       29.85F
WOLF POINT     SUNNY     72  61  68 E9        29.81S
* BEAVER HILL  N/A       66  59  78 E20G26     N/A
* CIRCLE       N/A       67  61  81 E10G17     N/A
* LINDSAY DVD  N/A       66  57  73 E16G22     N/A
* NAVAJO       N/A       65  59  81 SE12G20    N/A
$$

MTZ028>042-056>058-241500-
SOUTHCENTRAL AND SOUTHEAST MONTANA
CITY           SKY/WX    TMP DP  RH WIND       PRES   REMARKS
BAKER          PTSUNNY   66  57  73 E24G32    29.87S
BILLINGS       PTCLDY    70  59  68 VRB3      29.87R
LIVINGSTON     PTCLDY    66  45  47 NW15      29.91F
MILES CITY     SUNNY     72  57  59 E18G25    29.80F
* LAUREL APT   PTCLDY    64  55  73 N/A        N/A
* ROUNDUP APT  PTSUNNY   70  57  64 N13        N/A
* ALZADA       N/A       72  63  73 E4         N/A
* HYSHAM       N/A       71  59  66 NE6G11     N/A
* LAME DEER    N/A       77  54  45 W7         N/A
* REED POINT   N/A       68  54  61 NW2        N/A
* ROSCOE HILL  N/A       76  38  25 W3         N/A
$$

REGIONAL REPORTS...DAKOTAS
CITY           SKY/WX    TMP DP  RH WIND       PRES   REMARKS
WILLISTON      CLOUDY    68  61  78 E5        29.85F
DICKINSON      CLOUDY    64  61  90 E16       29.92R
CROSBY         N/A       63  63 100 E14G20    29.84F
TIOGA          SUNNY     61  61 100 SW5       29.93R
WATFORD CITY   SUNNY     64  63  97 SE10      29.86F
BISMARCK       CLOUDY    68  59  73 CALM      30.00R
GRAND FORKS    CLOUDY    64  59  84 S7        30.06R
FARGO          PTSUNNY   70  57  64 S10       30.06F
BUFFALO SD     PTCLDY    70  63  79 SE8       29.76F
RAPID CITY     PTSUNNY   70  66  87 SE9       29.85F
$$

REGIONAL REPORTS...WYOMING/IDAHO/WASHINGTON
CITY           SKY/WX    TMP DP  RH WIND       PRES   REMARKS
GILLETTE       PTSUNNY   79  46  31 SW12      29.91R
SHERIDAN       PTCLDY    86  48  27 S14       29.83S
YELLOWSTONE LA PTCLDY    54  45  72 CALM      30.26S
SALMON         SUNNY     55  50  83 SW3       30.00R
MULLAN PASS    CLOUDY    37  36  96 VRB7      30.14S WCI  32
SPOKANE        PTSUNNY   50  45  83 S17       30.11R

$$




USA.gov is the U.S. government's official web portal to all federal, state and local government web resources and services.